Batavia, OH

4:25 AM EST on February 07, 2016 (GMT -0500)
Clermont County, Batavia

Weather History for KI69 - January, 2014

Change the Weather History Date:

Friday, January 17, 2014

  Actual Average (KLUK) Record (KLUK)
Temperature  
Mean Temperature 24 °F -  
Max Temperature 33 °F 37 °F 65 °F (1952)
Min Temperature 14 °F 22 °F -16 °F (1977)
Degree Days  
Heating Degree Days 42    
Moisture  
Dew Point 22 °F    
Average Humidity 84    
Maximum Humidity 100    
Minimum Humidity 63    
Precipitation  
Precipitation 0.00 in - - ()
Sea Level Pressure  
Sea Level Pressure 29.88 in    
Wind  
Wind Speed 8 mph (WSW)    
Max Wind Speed 18 mph    
Max Gust Speed 26 mph    
Visibility 8 miles    
Events Snow    
Averages and records for this station are not official NWS values.
T = Trace of Precipitation, MM = Missing Value Source: NWS Daily Summary

Daily Weather History Graph

Daily Weather History Graph

Search for Another Location

Airport or City:

Trip Planner

Search our weather history database for the weather conditions in past years. The results will help you decide how hot, cold, wet, or windy it might be!

Date:

Astronomy

Jan. 17, 2014 Rise Set
Actual Time 7:53 AM EST 5:40 PM EST
Civil Twilight 7:24 AM EST 6:09 PM EST
Nautical Twilight 6:51 AM EST 6:42 PM EST
Astronomical Twilight 6:19 AM EST 7:14 PM EST
Moon 7:25 PM EST (1/17) 8:21 AM EST (1/17)
Length of Visible Light 10h 45m
Length of Day
9h 47m
Full, 98% of the Moon is Illuminated
Jan 17
Full
Jan 24
Last Quarter
Jan 30
New
Feb 6
First Quarter
Feb 14
Full

Hourly Weather History & Observations

Time (EST) Temp. Windchill Dew Point Humidity Pressure Visibility Wind Dir Wind Speed Gust Speed Precip Events Conditions
12:13 AM 33.8 °F 27.7 °F 32.0 °F 93% 29.80 in 10.0 mi SW 6.9 mph - N/A   Overcast
12:34 AM 33.8 °F 27.0 °F 32.0 °F 93% 29.80 in 10.0 mi SW 8.1 mph - N/A   Overcast
12:53 AM 33.8 °F 27.0 °F 32.0 °F 93% 29.79 in 10.0 mi SW 8.1 mph - N/A   Overcast
1:13 AM 32.0 °F 26.4 °F 32.0 °F 100% 29.78 in 10.0 mi SW 5.8 mph - N/A   Overcast
1:34 AM 32.0 °F 24.8 °F 32.0 °F 100% 29.78 in 10.0 mi SSW 8.1 mph - N/A   Overcast
1:53 AM 32.0 °F 24.2 °F 32.0 °F 100% 29.78 in 10.0 mi SW 9.2 mph - N/A   Overcast
2:13 AM 32.0 °F 27.5 °F 32.0 °F 100% 29.78 in 10.0 mi SW 4.6 mph - N/A   Overcast
2:34 AM 32.0 °F 28.7 °F 32.0 °F 100% 29.78 in 10.0 mi SSW 3.5 mph - N/A   Overcast
2:53 AM 32.0 °F 27.5 °F 32.0 °F 100% 29.78 in 10.0 mi South 4.6 mph - N/A   Overcast
3:13 AM 32.0 °F 27.5 °F 32.0 °F 100% 29.78 in 10.0 mi SSW 4.6 mph - N/A   Mostly Cloudy
3:34 AM 32.0 °F 27.5 °F 32.0 °F 100% 29.78 in 10.0 mi South 4.6 mph - N/A   Mostly Cloudy
3:53 AM 32.0 °F - 32.0 °F 100% 29.78 in 10.0 mi Calm Calm - N/A   Mostly Cloudy
4:13 AM 32.0 °F 27.5 °F 32.0 °F 100% 29.78 in 10.0 mi SSW 4.6 mph - N/A   Overcast
4:34 AM 33.8 °F 28.6 °F 32.0 °F 93% 29.78 in 10.0 mi SSW 5.8 mph - N/A   Overcast
4:53 AM 33.8 °F 29.6 °F 32.0 °F 93% 29.78 in 10.0 mi South 4.6 mph - N/A   Overcast
5:14 AM 33.8 °F 28.6 °F 32.0 °F 93% 29.77 in 10.0 mi SSW 5.8 mph - N/A   Overcast
5:33 AM 33.8 °F 30.8 °F 32.0 °F 93% 29.77 in 10.0 mi South 3.5 mph - N/A   Overcast
5:53 AM 33.8 °F 28.6 °F 32.0 °F 93% 29.76 in 10.0 mi South 5.8 mph - N/A   Overcast
6:14 AM 33.8 °F 30.8 °F 32.0 °F 93% 29.76 in 10.0 mi SSW 3.5 mph - N/A   Overcast
6:33 AM 33.8 °F 30.8 °F 32.0 °F 93% 29.76 in 10.0 mi South 3.5 mph - N/A   Overcast
6:53 AM 33.8 °F 28.6 °F 32.0 °F 93% 29.76 in 10.0 mi SSW 5.8 mph - N/A   Overcast
7:14 AM 33.8 °F 29.6 °F 33.8 °F 100% 29.76 in 10.0 mi SSW 4.6 mph - N/A   Overcast
7:33 AM 33.8 °F 27.0 °F 32.0 °F 93% 29.76 in 10.0 mi SSW 8.1 mph - N/A   Overcast
7:53 AM 33.8 °F 27.7 °F 32.0 °F 93% 29.77 in 10.0 mi SW 6.9 mph - N/A   Overcast
8:14 AM 33.8 °F 27.7 °F 33.8 °F 100% 29.76 in 10.0 mi SSW 6.9 mph - N/A   Overcast
8:33 AM 33.8 °F 29.6 °F 33.8 °F 100% 29.76 in 10.0 mi SSW 4.6 mph - N/A   Overcast
8:53 AM 33.8 °F 30.8 °F 33.8 °F 100% 29.77 in 2.0 mi SSW 3.5 mph - N/A Snow Light Snow
9:14 AM 33.8 °F 28.6 °F 33.8 °F 100% 29.77 in 2.5 mi South 5.8 mph - N/A Snow Light Snow
9:33 AM 33.8 °F 27.0 °F 33.8 °F 100% 29.77 in 5.0 mi SSW 8.1 mph - N/A Snow Light Snow
9:53 AM 33.8 °F 28.6 °F 33.8 °F 100% 29.78 in 3.0 mi SSW 5.8 mph - N/A Snow Light Snow
10:14 AM 32.0 °F 20.8 °F 32.0 °F 100% 29.80 in 0.2 mi West 17.3 mph 26.5 mph N/A Snow Snow
10:33 AM 30.2 °F 18.9 °F 30.2 °F 100% 29.82 in 2.5 mi WNW 16.1 mph 24.2 mph N/A Snow Light Snow
10:53 AM 30.2 °F 18.1 °F 28.4 °F 93% 29.83 in 2.5 mi WNW 18.4 mph 24.2 mph N/A Snow Light Snow
11:14 AM 30.2 °F 19.3 °F 26.6 °F 86% 29.84 in 10.0 mi West 15.0 mph 23.0 mph N/A Snow Light Snow
11:33 AM 28.4 °F 16.6 °F 24.8 °F 86% 29.85 in 7.0 mi West 16.1 mph 23.0 mph N/A Snow Light Snow
11:53 AM 28.4 °F 18.5 °F 23.0 °F 80% 29.86 in 2.5 mi West 11.5 mph 20.7 mph N/A Snow Light Snow
12:14 PM 28.4 °F 17.0 °F 23.0 °F 80% 29.85 in 1.8 mi West 15.0 mph - N/A Snow Light Snow
12:33 PM 26.6 °F 16.8 °F 23.0 °F 86% 29.86 in 7.0 mi West 10.4 mph 18.4 mph N/A Snow Light Snow
12:53 PM 26.6 °F 15.2 °F 21.2 °F 80% 29.86 in 7.0 mi West 13.8 mph - N/A Snow Light Snow
1:14 PM 26.6 °F 16.8 °F 21.2 °F 80% 29.86 in 2.0 mi WNW 10.4 mph - N/A Snow Light Snow
1:33 PM 26.6 °F 17.5 °F 21.2 °F 80% 29.86 in 5.0 mi WNW 9.2 mph - N/A Snow Light Snow
1:53 PM 26.6 °F 16.8 °F 21.2 °F 80% 29.86 in 4.0 mi WNW 10.4 mph 18.4 mph N/A Snow Light Snow
2:13 PM 26.6 °F 16.8 °F 21.2 °F 80% 29.86 in 7.0 mi WNW 10.4 mph - N/A Snow Light Snow
2:33 PM 24.8 °F 13.4 °F 21.2 °F 86% 29.88 in 1.5 mi WNW 12.7 mph - N/A Snow Light Snow
2:54 PM 23.0 °F 11.7 °F 19.4 °F 86% 29.90 in 1.0 mi WNW 11.5 mph 19.6 mph N/A Snow Light Snow
3:13 PM 23.0 °F 11.1 °F 19.4 °F 86% 29.91 in 2.0 mi West 12.7 mph - N/A Snow Light Snow
3:33 PM 23.0 °F 9.2 °F 17.6 °F 80% 29.92 in 2.5 mi West 17.3 mph 24.2 mph N/A Snow Light Snow
3:54 PM 21.2 °F 7.8 °F 15.8 °F 80% 29.94 in 7.0 mi West 15.0 mph 21.9 mph N/A   Overcast
4:13 PM 21.2 °F 8.3 °F 12.2 °F 68% 29.95 in 10.0 mi West 13.8 mph 20.7 mph N/A   Overcast
4:33 PM 21.2 °F 7.3 °F 12.2 °F 68% 29.97 in 10.0 mi West 16.1 mph 24.2 mph N/A   Overcast
4:54 PM 21.2 °F 7.8 °F 12.2 °F 68% 29.98 in 7.0 mi West 15.0 mph 19.6 mph N/A Snow Light Snow
5:13 PM 21.2 °F 8.9 °F 12.2 °F 68% 29.99 in 5.0 mi West 12.7 mph 17.3 mph N/A Snow Light Snow
5:33 PM 19.4 °F 5.5 °F 10.4 °F 68% 30.00 in 10.0 mi West 15.0 mph 20.7 mph N/A   Overcast
5:54 PM 19.4 °F 7.9 °F 8.6 °F 63% 30.00 in 10.0 mi West 10.4 mph - N/A   Overcast
6:13 PM 19.4 °F 5.0 °F 8.6 °F 63% 30.01 in 10.0 mi West 16.1 mph - N/A   Overcast
6:33 PM 19.4 °F 7.9 °F 8.6 °F 63% 30.02 in 10.0 mi West 10.4 mph 16.1 mph N/A   Overcast
6:54 PM 19.4 °F 10.4 °F 8.6 °F 63% 30.03 in 10.0 mi West 6.9 mph - N/A   Overcast
7:13 PM 19.4 °F 8.6 °F 8.6 °F 63% 30.03 in 10.0 mi West 9.2 mph - N/A   Overcast
7:33 PM 17.6 °F 7.3 °F 8.6 °F 68% 30.04 in 10.0 mi West 8.1 mph - N/A   Overcast
7:54 PM 17.6 °F 7.3 °F 8.6 °F 68% 30.04 in 10.0 mi West 8.1 mph - N/A   Overcast
8:13 PM 17.6 °F 5.0 °F 8.6 °F 68% 30.05 in 10.0 mi West 11.5 mph - N/A   Mostly Cloudy
8:33 PM 17.6 °F 6.4 °F 6.8 °F 63% 30.05 in 10.0 mi West 9.2 mph - N/A   Mostly Cloudy
8:54 PM 17.6 °F 5.7 °F 6.8 °F 63% 30.05 in 10.0 mi West 10.4 mph - N/A   Mostly Cloudy
9:13 PM 17.6 °F 7.3 °F 8.6 °F 68% 30.05 in 10.0 mi West 8.1 mph - N/A   Mostly Cloudy
9:33 PM 15.8 °F 5.1 °F 6.8 °F 68% 30.06 in 10.0 mi West 8.1 mph - N/A   Overcast
9:54 PM 15.8 °F 5.1 °F 6.8 °F 68% 30.07 in 10.0 mi West 8.1 mph - N/A   Overcast
10:13 PM 14.0 °F 5.1 °F 6.8 °F 73% 30.07 in 10.0 mi WSW 5.8 mph - N/A   Mostly Cloudy
10:33 PM 14.0 °F 6.5 °F 6.8 °F 73% 30.07 in 10.0 mi WSW 4.6 mph - N/A   Mostly Cloudy
10:54 PM 14.0 °F 8.2 °F 8.6 °F 79% 30.07 in 10.0 mi SW 3.5 mph - N/A   Mostly Cloudy
11:13 PM 14.0 °F 6.5 °F 8.6 °F 79% 30.07 in 10.0 mi WSW 4.6 mph - N/A   Overcast
11:33 PM 14.0 °F 6.5 °F 6.8 °F 73% 30.06 in 10.0 mi SW 4.6 mph - N/A   Overcast
11:54 PM 14.0 °F 5.1 °F 8.6 °F 79% 30.06 in 10.0 mi WSW 5.8 mph - N/A   Overcast